This demonstration page uses our WeatherBlox Daily Observations layout. Learn more.

Left ArrowRight Arrow

Hourly Observations for December 5, 2019

Temp ( °F °C ) Dew Point ( °F °C ) Humidity (%) Winds ( mph kmh ) Pressure ( in mb ) Visibility ( mi km ) Precip ( " mm )
12:04 am 00:04 Cloudy 53 11.7 49 9.4 86 86 Calm 29.99 1016 7 11 0.00 0.00
12:53 am 00:53 Cloudy 52 11.1 49 9.4 89 89 Calm 29.99 1016 7 11 0.00 0.00
1:53 am 01:53 Cloudy with Mist and Fog 52 11.1 49 9.4 89 89 Calm 30.01 1016 5 8 0.00 0.00
2:53 am 02:53 Cloudy with Light Rain 51 10.6 49 9.4 92 92 NE 5 7 30.01 1016 3 5 0.01 0.25
3:02 am 03:02 Cloudy with Light Rain 50 10 49 9.4 96 96 NNE 5 7 30.03 1017 3 4 0.00 0.00
3:29 am 03:29 Cloudy with Light Rain 50 10 49 9.4 96 96 NNE 5 7 30.03 1017 2 3 0.03 0.76
3:48 am 03:48 Cloudy with Light Rain 50 10 48 9 94 94 NNE 6 9 30.04 1017 3 5 0.04 1.02
3:49 am 03:49 Cloudy with Light Rain 50 10 48 8.9 93 93 NNE 6 9 30.03 1017 3 5 0.04 1.02
4:05 am 04:05 Cloudy with Light Rain 50 10 48 8.9 93 93 NNE 5 7 30.05 1018 3 4 0.01 0.25
4:34 am 04:34 Cloudy with Light Rain 50 10 48 8.9 93 93 N 5 7 30.05 1018 4 6 0.03 0.76
4:53 am 04:53 Cloudy with Light Rain 50 10 48 8.9 93 93 N 6 9 30.04 1017 4 6 0.04 1.02
5:00 am 05:00 Cloudy with Light Rain 50 10 48 8.9 93 93 N 6 9 30.05 1018 4 6 0.00 0.00
5:19 am 05:19 Cloudy with Light Rain 50 10 48 8.9 93 93 N 3 6 30.06 1018 4 6 0.01 0.25
5:53 am 05:53 Cloudy with Light Rain 50 10 48 8.9 93 93 N 3 6 30.06 1018 4 6 0.02 0.51
6:15 am 06:15 Cloudy with Mist and Fog 50 10 48 8.9 93 93 N 5 7 30.08 1019 5 8 0.00 0.00
6:28 am 06:28 Cloudy 50 10 48 8.9 93 93 N 6 9 30.08 1019 8 13 0.00 0.00
6:53 am 06:53 Cloudy 50 10 48 8.9 93 93 N 5 7 30.07 1018 9 14 0.00 0.00
7:29 am 07:29 Cloudy 50 10 48 8.9 93 93 NNW 3 6 30.09 1019 10 16 0.00 0.00
7:53 am 07:53 Cloudy 50 10 48 8.9 93 93 NNW 5 7 30.08 1019 9 14 0.00 0.00
8:00 am 08:00 Cloudy with Light Rain 50 10 48 8.9 93 93 NNW 3 6 30.09 1019 4 6 0.00 0.00
8:53 am 08:53 Cloudy with Light Rain 50 10 48 8.9 93 93 N 3 6 30.09 1019 2 3 0.01 0.25
9:12 am 09:12 Cloudy with Mist and Fog 50 10 48 8.9 93 93 NNW 3 6 30.11 1020 3 5 0.01 0.25
9:34 am 09:34 Cloudy with Light Rain 50 10 48 8.9 93 93 NW 3 6 30.12 1020 2 3 0.01 0.25
9:53 am 09:53 Cloudy with Light Rain 50 10 49 9.4 96 96 NNW 3 6 30.11 1020 2 3 0.05 1.27
10:11 am 10:11 Cloudy with Light Rain 51 10.6 49 9.4 92 92 WNW 3 6 30.14 1021 2 3 0.01 0.25
10:53 am 10:53 Cloudy with Mist and Fog 51 10.6 49 9.4 92 92 NNW 5 7 30.12 1020 2 3 0.02 0.51
11:00 am 11:00 Cloudy with Mist and Fog 51 10.6 49 9.4 92 92 NNW 3 6 30.13 1020 5 8 0.00 0.00
11:53 am 11:53 Cloudy 53 11.7 50 10 89 89 N 6 9 30.10 1019 7 11 0.00 0.00
12:53 pm 12:53 Cloudy 55 12.8 51 10.6 87 87 N 6 9 30.08 1019 10 16 0.00 0.00
1:53 pm 13:53 Cloudy 57 13.9 52 11.1 83 83 NNE 3 6 30.07 1018 10 16 0.00 0.00
2:53 pm 14:53 Mostly Cloudy 57 13.9 52 11.1 83 83 Calm 30.06 1018 10 16 0.00 0.00
3:53 pm 15:53 Mostly Cloudy 56 13.3 51 10.6 84 84 NW 3 6 30.06 1018 10 16 0.00 0.00
4:00 pm 16:00 Mostly Cloudy 56 13.3 52 11.1 87 87 WSW 3 6 30.07 1018 9 14 0.00 0.00
4:53 pm 16:53 Cloudy 55 12.8 52 11.1 90 90 Calm 30.06 1018 8 13 0.00 0.00
5:00 pm 17:00 Cloudy 54 12.2 52 11.1 93 93 Calm 30.07 1018 9 14 0.00 0.00
5:53 pm 17:53 Cloudy 55 12.8 52 11.1 90 90 Calm 30.06 1018 8 13 0.00 0.00
6:53 pm 18:53 Cloudy 54 12.2 51 10.6 90 90 N 3 6 30.06 1018 9 14 0.00 0.00
7:28 pm 19:28 Cloudy 54 12.2 50 10 87 87 N 6 9 30.06 1018 10 16 0.00 0.00
7:53 pm 19:53 Cloudy 54 12.2 49 9.4 83 83 Calm 30.06 1018 10 16 0.00 0.00
8:40 pm 20:40 Cloudy 53 11.7 49 9.4 86 86 NNW 5 7 30.05 1018 10 16 0.00 0.00
8:53 pm 20:53 Cloudy 53 11.7 49 9.4 86 86 NW 3 6 30.04 1017 10 16 0.00 0.00
9:53 pm 21:53 Cloudy with Mist and Fog 52 11.1 50 10 93 93 WNW 5 7 30.05 1018 6 10 0.00 0.00
10:18 pm 22:18 Cloudy 52 11.1 50 10 93 93 NNW 3 6 30.05 1017 8 13 0.00 0.00
10:53 pm 22:53 Cloudy 52 11.1 50 10 93 93 NW 5 7 30.04 1017 9 14 0.00 0.00
11:53 pm 23:53 Cloudy 52 11.1 49 9.4 89 89 NNE 5 7 30.02 1017 10 16 0.00 0.00

Powered by AerisWeather